AirNav   Air Wisconsin Up To $57,000 Bonus
 
 386 users online  

7Y9 Big Falls Municipal Airport
Big Falls, Minnesota, USA

GOING TO BIG FALLS?


FAA INFORMATION EFFECTIVE 08 OCTOBER 2020

Location

FAA Identifier: 7Y9
Lat/Long: 48-12-01.8564N 093-45-44.5548W
48-12.030940N 093-45.742580W
48.2005157,-93.7623763
(estimated)
Elevation: 1232 ft. / 376 m (estimated)
Variation: 03E (1985)
From city: 3 miles NE of BIG FALLS, MN
Time zone: UTC -5 (UTC -6 during Standard Time)
Zip code: 56627

Airport Operations

Airport use: Open to the public
Activation date: 01/1951
Control tower: no
ARTCC: MINNEAPOLIS CENTER
FSS: PRINCETON FLIGHT SERVICE STATION
NOTAMs facility: PNM (NOTAM-D service available)
Attendance: UNATNDD
Wind indicator: lighted
Segmented circle: no
Lights: SS-SR

Airport Communications

CTAF: 122.9

Nearby radio navigation aids

VOR radial/distance  VOR name  Freq  Var
INLr207/26.1INTERNATIONAL FALLS VOR/D111.0006E

 
NDB name  Hdg/Dist  Freq  Var  ID
BIGFORK348/25.434502EFOZ ..-. --- --..
ORR285/37.734102EORB --- .-. -...

Airport Services

Parking: tiedowns
Airframe service: NONE
Powerplant service: NONE
Bottled oxygen: NONE
Bulk oxygen: NONE

Runway Information

Runway 3/21

Dimensions: 2850 x 100 ft. / 869 x 30 m
Surface: turf, in good condition
Runway edge markings: RY 03/21 MKD WITH YELLOW CONES.
RUNWAY 3  RUNWAY 21
Latitude: 48-11.925120N48-12.307860N
Longitude: 093-45.766500W093-45.361320W
Traffic pattern: leftleft
Displaced threshold: no785 ft.
Obstructions: 66 ft. trees, 653 ft. from runway, 171 ft. right of centerline, 9:1 slope to clear52 ft. trees, 226 ft. from runway, 132 ft. left of centerline, 4:1 slope to clear

Runway 11/29

Dimensions: 2602 x 200 ft. / 793 x 61 m
Surface: turf, in good condition
Runway edge lights: non-standard
NSTD LIRL DUE TO SPACING.
Runway edge markings: RY 11/29 MKD WITH YELLOW CONES.
RUNWAY 11  RUNWAY 29
Latitude: 48-12.046740N48-11.828633N
Longitude: 093-46.213800W093-45.663053W
Traffic pattern: leftleft
Obstructions: 71 ft. trees, 906 ft. from runway, 182 ft. right of centerline, 12:1 slope to clear80 ft. trees, 1716 ft. from runway, 83 ft. right of centerline, 21:1 slope to clear

Airport Ownership and Management from official FAA records

Ownership: Publicly-owned
Owner: CITY OF BIG FALLS
P.O. BOX 196
BIG FALLS, MN 56627
Phone 218-276-2282
Manager: TERRY BAIRD
P.O. BOX 196
BIG FALLS, MN 56627
Phone 218-556-4827

Airport Operational Statistics

Aircraft based on the field: 2
Single engine airplanes: 2
    
Aircraft operations: avg 33/month *
50% transient general aviation
50% local general aviation
* for 12-month period ending 31 July 2016

Additional Remarks

ARPT SFCS NOT PLOWED IN WINTER, CALL AIRPORT MANAGER (218) 556-4827, OR CHECK NOTAMS.
ULTRALIGHT TRAFFIC ON & INVOF ARPT.
FOR CD CTC MINNEAPOLIS ARTCC AT 651-463-5588.

Instrument Procedures

There are no published instrument procedures at 7Y9.

Some nearby airports with instrument procedures:

KFOZ - Bigfork Municipal Airport (25 nm S)
KINL - Falls International Airport-Einarson Field (26 nm NE)
KORB - Orr Regional Airport (38 nm E)
KBDE - Baudette International Airport (46 nm NW)
KCQM - Cook Municipal Airport (49 nm SE)
 
Loc | Ops | Rwys | IFR | FBO | Links
Com | Nav | Svcs | Stats | Notes
Area around 7Y9 (Big Falls Municipal Airport)
 
Road maps at: MapQuest Bing Google
 
Aerial photo
No photo
 
Sectional chart

 
Airport distance calculator
Flying to Big Falls Municipal Airport? Find the distance to fly.

From to 7Y9

Sunrise and sunset
Times for 23-Oct-2020
 Local
(UTC-5)
 Zulu
(UTC)
Morning civil twilight07:1712:17
Sunrise07:4912:49
Sunset18:0923:09
Evening civil twilight18:4123:41

Current date and time
Zulu (UTC)  23-Oct-2020 09:34:14
Local (UTC-5)  23-Oct-2020 04:34:14
 
METAR
KINL 
26nm NE 
230854Z AUTO 35005KT 10SM FEW055 OVC090 M01/M05 A3028 RMK AO2 SLP272 T10061050 52001
KFOZ 
26nm S 
230913Z AUTO 00000KT 10SM OVC070 M02/M03 A3032 RMK AO2
KVWU 
30nm W 
230915Z AUTO 33003KT 10SM M02/M05 A3030 RMK AO2
KORB 
38nm E 
230913Z AUTO 00000KT 10SM BKN070 OVC090 M02/M03 A3023 RMK AO2
KBDE 
47nm NW 
230853Z AUTO 35004KT 10SM OVC043 M01/M05 A3031 RMK AO2 SLP281 T10111050 53002
KCDD 
48nm E 
230913Z AUTO 04003KT 10SM SCT080 OVC090 M01/M02 A3028 RMK AO2
KCQM 
49nm SE 
230917Z AUTO 00000KT 10SM BKN090 120 M02/M02 A3024 RMK AO2
TAF
KINL 
26nm NE 
230803Z 2308/2406 02006KT 6SM BR BKN035 FM232200 28009G15KT P6SM BKN060
NOTAMs
Click for the latest NOTAMs
NOTAMs are issued by the DoD/FAA and will open in a separate window not controlled by AirNav.

 

 
 

Would you like to see your business listed on this page?

 If your business provides an interesting product or service to pilots, flight crews, aircraft, or users of the Big Falls Municipal Airport, you should consider listing it here.  To start the listing process, click on the button below
 
Add a business
 

Other Pages about Big Falls Municipal Airport

Update a link
 
Copyright © AirNav, LLC. All rights reserved. Privacy Policy  Contact